AMC117 LICG-HLLM

Flight info

Callsign AMC117
Flight time N/A
Altitude 33000
Route DCT DOBIX DCT EDELI DCT
Aircraft B736/M-SDE2E3FGHIRWXY/LB1

Departure

Time N/A
Airport Pantelleria Airport (LICG)

Arrival

Time 2026-04-19 08:35
Airport Mitiga International Airport (HLLM)
Time Latitude Longitude Altitude Speed Heading
2026-04-19 08:25 33.62248 13.20837 15259 ft 346 kts 162°
2026-04-19 08:25 33.57684 13.22602 14432 ft 342 kts 162°
2026-04-19 08:25 33.53182 13.24342 13557 ft 339 kts 162°
2026-04-19 08:25 33.48719 13.26066 12648 ft 335 kts 162°
2026-04-19 08:26 33.44318 13.27763 11803 ft 330 kts 162°
2026-04-19 08:26 33.39974 13.29436 10972 ft 326 kts 162°
2026-04-19 08:26 33.35704 13.31080 10386 ft 314 kts 162°
2026-04-19 08:26 33.31670 13.32630 10110 ft 294 kts 161°
2026-04-19 08:27 33.27805 13.34115 9460 ft 290 kts 161°
2026-04-19 08:27 33.23977 13.35584 8792 ft 287 kts 161°
2026-04-19 08:27 33.20197 13.37034 8148 ft 284 kts 161°
2026-04-19 08:27 33.16462 13.38465 7511 ft 280 kts 162°
2026-04-19 08:28 33.12771 13.39878 6908 ft 277 kts 162°
2026-04-19 08:28 33.09102 13.41281 6287 ft 275 kts 162°
2026-04-19 08:28 33.05464 13.42671 5645 ft 274 kts 162°
2026-04-19 08:28 33.01857 13.44048 5038 ft 271 kts 162°
2026-04-19 08:29 32.98268 13.45417 4351 ft 272 kts 162°
2026-04-19 08:29 32.96133 13.46231 4007 ft 268 kts 162°
2026-04-19 08:29 32.94436 13.46878 3931 ft 251 kts 162°
2026-04-19 08:29 32.92824 13.47492 3808 ft 236 kts 162°
2026-04-19 08:30 32.91304 13.48070 3683 ft 223 kts 162°
2026-04-19 08:30 32.89870 13.48616 3569 ft 209 kts 162°
2026-04-19 08:30 32.88157 13.49258 3223 ft 202 kts 167°
2026-04-19 08:30 32.86846 13.49184 3064 ft 183 kts 206°
2026-04-19 08:31 32.85844 13.48290 3019 ft 182 kts 237°
2026-04-19 08:31 32.85395 13.46920 2885 ft 178 kts 272°
2026-04-19 08:31 32.85514 13.45505 2681 ft 167 kts 280°
2026-04-19 08:31 32.85690 13.44187 2445 ft 157 kts 282°
2026-04-19 08:32 32.85937 13.42930 2254 ft 156 kts 285°
2026-04-19 08:32 32.86222 13.41665 2029 ft 158 kts 285°
2026-04-19 08:32 32.86507 13.40421 1818 ft 155 kts 285°
2026-04-19 08:32 32.86792 13.39178 1609 ft 154 kts 285°
2026-04-19 08:33 32.87065 13.37988 1402 ft 144 kts 284°
2026-04-19 08:33 32.87320 13.36878 1213 ft 137 kts 285°
2026-04-19 08:33 32.87573 13.35778 1045 ft 137 kts 285°
2026-04-19 08:33 32.87828 13.34701 937 ft 132 kts 284°
2026-04-19 08:34 32.88079 13.33666 838 ft 135 kts 284°
2026-04-19 08:34 32.88307 13.32570 641 ft 138 kts 284°
2026-04-19 08:34 32.88561 13.31481 308 ft 136 kts 284°
2026-04-19 08:34 32.88795 13.30419 52 ft 131 kts 285°
2026-04-19 08:35 32.89029 13.29417 16 ft 114 kts 285°
2026-04-19 08:35 32.89211 13.28615 19 ft 89 kts 284°
2026-04-19 08:35 32.89340 13.28057 20 ft 50 kts 285°
2026-04-19 08:35 32.89419 13.27718 22 ft 30 kts 286°
2026-04-19 08:36 32.89469 13.27553 27 ft 18 kts 323°
2026-04-19 08:36 32.89522 13.27567 25 ft 8 kts 32°
2026-04-19 08:36 32.89572 13.27603 22 ft 9 kts 31°
2026-04-19 08:36 32.89632 13.27643 21 ft 10 kts 27°
2026-04-19 08:37 32.89697 13.27688 22 ft 11 kts 31°
2026-04-19 08:37 32.89769 13.27736 21 ft 13 kts 29°
2026-04-19 08:37 32.89849 13.27790 23 ft 14 kts 29°
2026-04-19 08:37 32.89940 13.27850 21 ft 16 kts 28°
2026-04-19 08:38 32.90039 13.27918 23 ft 17 kts 30°
2026-04-19 08:38 32.90151 13.27936 21 ft 18 kts 334°
2026-04-19 08:38 32.90262 13.27879 21 ft 17 kts 336°
2026-04-19 08:38 32.90375 13.27869 21 ft 17 kts 18°
2026-04-19 08:39 32.90464 13.27937 21 ft 10 kts 69°
2026-04-19 08:39 32.90448 13.27974 22 ft 6 kts 125°
2026-04-19 08:39 32.90445 13.27979 23 ft 0 kts 125°